| time (UTC) | temp C | wind direction | speed KPH | gust KPH | rain 1hr cm | rain 24hr cm | rain mn cm | humidity % | barometer mb |
| 20260510033019 | 30 | 190 | 0.0 | 8.0 | 0.00 | 0.00 | 0.00 | 45 | 1009.9 |
| 20260510032518 | 30 | 190 | 0.0 | 8.0 | 0.00 | 0.00 | 0.00 | 45 | 1009.7 |
| 20260510032018 | 30 | 190 | 1.6 | 6.4 | 0.00 | 0.00 | 0.00 | 45 | 1009.6 |
| 20260510031557 | 30 | 0 | 1.6 | 4.8 | 0.00 | 0.00 | 0.00 | 44 | 1009.5 |
| 20260510031523 | 30 | 190 | 0.0 | 4.8 | 0.00 | 0.00 | 0.00 | 45 | 1009.4 |
| 20260510031018 | 30 | 190 | 0.0 | 0.0 | 0.00 | 0.00 | 0.00 | 45 | 1009.4 |
| 20260510030521 | 30 | 190 | 0.0 | 4.8 | 0.00 | 0.00 | 0.00 | 44 | 1009.2 |
| 20260510030106 | 30 | 0 | 0.0 | 8.0 | 0.00 | 0.00 | 0.00 | 44 | 1008.9 |
| 20260510030031 | 30 | 190 | 0.0 | 4.8 | 0.00 | 0.00 | 0.00 | 44 | 1009.1 |
| 20260510025517 | 30 | 190 | 1.6 | 8.0 | 0.00 | 0.00 | 0.00 | 44 | 1008.9 |
| 20260510025019 | 30 | 190 | 1.6 | 8.0 | 0.00 | 0.00 | 0.00 | 43 | 1008.8 |
| 20260510024558 | 30 | 0 | 0.0 | 3.2 | 0.00 | 0.00 | 0.00 | 43 | 1008.7 |
| 20260510024519 | 30 | 190 | 0.0 | 3.2 | 0.00 | 0.00 | 0.00 | 43 | 1008.8 |
| 20260510024017 | 30 | 190 | 0.0 | 6.4 | 0.00 | 0.00 | 0.00 | 43 | 1008.8 |
| 20260510023519 | 30 | 190 | 0.0 | 9.7 | 0.00 | 0.00 | 0.00 | 43 | 1008.7 |
| 20260510023059 | 30 | 0 | 3.2 | 9.7 | 0.00 | 0.00 | 0.00 | 42 | 1008.3 |
| 20260510023017 | 30 | 190 | 3.2 | 9.7 | 0.00 | 0.00 | 0.00 | 43 | 1008.5 |
| 20260510022516 | 30 | 190 | 0.0 | 11.3 | 0.00 | 0.00 | 0.00 | 42 | 1008.4 |
| 20260510022016 | 31 | 190 | 0.0 | 11.3 | 0.00 | 0.00 | 0.00 | 42 | 1008.3 |
| 20260510021608 | 31 | 0 | 1.6 | 6.4 | 0.00 | 0.00 | 0.00 | 41 | 1008.3 |
| 20260510021516 | 31 | 190 | 0.0 | 6.4 | 0.00 | 0.00 | 0.00 | 41 | 1008.3 |
| 20260510021017 | 31 | 190 | 0.0 | 8.0 | 0.00 | 0.00 | 0.00 | 40 | 1008.2 |
| 20260510020515 | 31 | 190 | 1.6 | 8.0 | 0.00 | 0.00 | 0.00 | 40 | 1008.1 |
| 20260510020100 | 31 | 0 | 0.0 | 14.5 | 0.00 | 0.00 | 0.00 | 39 | 1007.9 |
| 20260510020016 | 31 | 190 | 1.6 | 14.5 | 0.00 | 0.00 | 0.00 | 40 | 1007.9 |
| 20260510015517 | 31 | 190 | 1.6 | 14.5 | 0.00 | 0.00 | 0.00 | 40 | 1007.9 |
| 20260510015015 | 31 | 190 | 3.2 | 14.5 | 0.00 | 0.00 | 0.00 | 39 | 1007.7 |
| 20260510014601 | 31 | 190 | 4.8 | 12.9 | 0.00 | 0.00 | 0.00 | 39 | 1007.5 |
| 20260510014515 | 31 | 190 | 3.2 | 12.9 | 0.00 | 0.00 | 0.00 | 39 | 1007.6 |
| 20260510014015 | 31 | 190 | 3.2 | 11.3 | 0.00 | 0.00 | 0.00 | 39 | 1007.4 |
| 20260510013517 | 32 | 190 | 1.6 | 12.9 | 0.00 | 0.00 | 0.00 | 38 | 1007.2 |
| 20260510013059 | 32 | 190 | 4.8 | 16.1 | 0.00 | 0.00 | 0.00 | 36 | 1007.1 |
| 20260510013015 | 32 | 190 | 3.2 | 16.1 | 0.00 | 0.00 | 0.00 | 37 | 1007.1 |
| 20260510012513 | 32 | 190 | 8.0 | 16.1 | 0.00 | 0.00 | 0.00 | 35 | 1006.8 |
| 20260510012013 | 32 | 190 | 1.6 | 14.5 | 0.00 | 0.00 | 0.00 | 34 | 1006.5 |
| 20260510011559 | 32 | 190 | 6.4 | 17.7 | 0.00 | 0.00 | 0.00 | 33 | 1006.5 |
| 20260510011514 | 32 | 190 | 3.2 | 16.1 | 0.00 | 0.00 | 0.00 | 34 | 1006.4 |
| 20260510011017 | 32 | 190 | 6.4 | 19.3 | 0.00 | 0.00 | 0.00 | 34 | 1006.2 |
| 20260510010513 | 33 | 190 | 4.8 | 19.3 | 0.00 | 0.00 | 0.00 | 34 | 1006.1 |
| 20260510010100 | 33 | 190 | 9.7 | 27.4 | 0.00 | 0.00 | 0.00 | 33 | 1006.0 |
| 20260510010015 | 33 | 190 | 8.0 | 24.1 | 0.00 | 0.00 | 0.00 | 33 | 1006.0 |
| 20260510005512 | 33 | 190 | 8.0 | 27.4 | 0.00 | 0.00 | 0.00 | 33 | 1005.8 |
| 20260510005011 | 33 | 190 | 11.3 | 20.9 | 0.00 | 0.00 | 0.00 | 33 | 1005.7 |
| 20260510004600 | 33 | 190 | 8.0 | 22.5 | 0.00 | 0.00 | 0.00 | 32 | 1005.6 |
| 20260510004511 | 33 | 190 | 8.0 | 16.1 | 0.00 | 0.00 | 0.00 | 32 | 1005.5 |
| 20260510004015 | 33 | 190 | 6.4 | 22.5 | 0.00 | 0.00 | 0.00 | 32 | 1005.2 |
| 20260510003512 | 34 | 190 | 9.7 | 22.5 | 0.00 | 0.00 | 0.00 | 32 | 1005.2 |
| 20260510003100 | 34 | 190 | 6.4 | 17.7 | 0.00 | 0.00 | 0.00 | 31 | 1005.2 |
| 20260510003021 | 34 | 190 | 4.8 | 17.7 | 0.00 | 0.00 | 0.00 | 31 | 1005.0 |
| 20260510002511 | 34 | 190 | 4.8 | 17.7 | 0.00 | 0.00 | 0.00 | 31 | 1004.9 |
| 20260510002011 | 34 | 190 | 6.4 | 17.7 | 0.00 | 0.00 | 0.00 | 31 | 1004.9 |
| 20260510001556 | 34 | 190 | 6.4 | 17.7 | 0.00 | 0.00 | 0.00 | 30 | 1005.0 |
| 20260510001511 | 34 | 190 | 6.4 | 17.7 | 0.00 | 0.00 | 0.00 | 31 | 1004.9 |
| 20260510001011 | 34 | 190 | 6.4 | 17.7 | 0.00 | 0.00 | 0.00 | 31 | 1004.8 |
| 20260510000511 | 35 | 190 | 6.4 | 17.7 | 0.00 | 0.00 | 0.00 | 30 | 1004.7 |
| 20260510000103 | 35 | 190 | 6.4 | 14.5 | 0.00 | 0.00 | 0.00 | 30 | 1004.7 |
| 20260510000010 | 35 | 190 | 4.8 | 14.5 | 0.00 | 0.00 | 0.00 | 30 | 1004.7 |
| 20260509235512 | 35 | 190 | 6.4 | 16.1 | 0.00 | 0.00 | 0.00 | 30 | 1004.7 |
| 20260509235010 | 35 | 190 | 6.4 | 22.5 | 0.00 | 0.00 | 0.00 | 30 | 1004.6 |
| 20260509234559 | 35 | 190 | 8.0 | 22.5 | 0.00 | 0.00 | 0.00 | 29 | 1004.5 |
| 20260509234514 | 35 | 190 | 8.0 | 22.5 | 0.00 | 0.00 | 0.00 | 30 | 1004.6 |
| 20260509234010 | 35 | 190 | 6.4 | 14.5 | 0.00 | 0.00 | 0.00 | 29 | 1004.5 |
| 20260509233509 | 35 | 190 | 3.2 | 12.9 | 0.00 | 0.00 | 0.00 | 29 | 1004.4 |
| 20260509233058 | 35 | 190 | 4.8 | 9.7 | 0.00 | 0.00 | 0.00 | 28 | 1004.3 |
| 20260509233020 | 35 | 190 | 4.8 | 9.7 | 0.00 | 0.00 | 0.00 | 29 | 1004.3 |
| 20260509232515 | 35 | 190 | 3.2 | 9.7 | 0.00 | 0.00 | 0.00 | 30 | 1004.3 |
| 20260509232009 | 35 | 190 | 0.0 | 16.1 | 0.00 | 0.00 | 0.00 | 29 | 1004.1 |
| 20260509231601 | 35 | 190 | 3.2 | 16.1 | 0.00 | 0.00 | 0.00 | 29 | 1004.1 |
| 20260509231509 | 35 | 190 | 0.0 | 16.1 | 0.00 | 0.00 | 0.00 | 29 | 1004.1 |
| 20260509231008 | 35 | 190 | 6.4 | 16.1 | 0.00 | 0.00 | 0.00 | 29 | 1004.0 |
| 20260509230508 | 35 | 190 | 6.4 | 14.5 | 0.00 | 0.00 | 0.00 | 29 | 1003.9 |
| 20260509230008 | 35 | 190 | 4.8 | 19.3 | 0.00 | 0.00 | 0.00 | 29 | 1003.9 |
| 20260509225508 | 35 | 190 | 9.7 | 19.3 | 0.00 | 0.00 | 0.00 | 29 | 1003.9 |
| 20260509225009 | 35 | 190 | 4.8 | 14.5 | 0.00 | 0.00 | 0.00 | 29 | 1003.9 |
| 20260509224601 | 35 | 190 | 4.8 | 19.3 | 0.00 | 0.00 | 0.00 | 28 | 1003.8 |
| 20260509224507 | 35 | 190 | 6.4 | 19.3 | 0.00 | 0.00 | 0.00 | 29 | 1003.9 |
| 20260509224008 | 35 | 190 | 6.4 | 19.3 | 0.00 | 0.00 | 0.00 | 29 | 1003.9 |
| 20260509223506 | 35 | 190 | 6.4 | 12.9 | 0.00 | 0.00 | 0.00 | 29 | 1003.9 |
| 20260509223058 | 35 | 190 | 1.6 | 11.3 | 0.00 | 0.00 | 0.00 | 29 | 1003.9 |
| 20260509223005 | 35 | 190 | 3.2 | 9.7 | 0.00 | 0.00 | 0.00 | 29 | 1004.0 |
| 20260509222505 | 35 | 190 | 3.2 | 11.3 | 0.00 | 0.00 | 0.00 | 29 | 1004.0 |
| 20260509222103 | 35 | 190 | 4.8 | 12.9 | 0.00 | 0.00 | 0.00 | 29 | 1004.0 |
| 20260509221603 | 35 | 190 | 6.4 | 17.7 | 0.00 | 0.00 | 0.00 | 28 | 1004.1 |
| 20260509221504 | 35 | 190 | 4.8 | 16.1 | 0.00 | 0.00 | 0.00 | 29 | 1004.1 |
| 20260509221006 | 35 | 190 | 4.8 | 17.7 | 0.00 | 0.00 | 0.00 | 29 | 1004.1 |
| 20260509220502 | 35 | 190 | 8.0 | 17.7 | 0.00 | 0.00 | 0.00 | 29 | 1004.1 |
| 20260509220110 | 35 | 190 | 4.8 | 19.3 | 0.00 | 0.00 | 0.00 | 28 | 1004.4 |
| 20260509220002 | 35 | 190 | 3.2 | 17.7 | 0.00 | 0.00 | 0.00 | 28 | 1004.2 |
| 20260509215501 | 35 | 190 | 6.4 | 19.3 | 0.00 | 0.00 | 0.00 | 29 | 1004.3 |
| 20260509215100 | 36 | 190 | 9.7 | 19.3 | 0.00 | 0.00 | 0.00 | 28 | 1004.4 |
| 20260509214604 | 36 | 190 | 0.0 | 14.5 | 0.00 | 0.00 | 0.00 | 29 | 1004.7 |
| 20260509214602 | 35 | 190 | 0.0 | 14.5 | 0.00 | 0.00 | 0.00 | 30 | 1004.5 |
| 20260509214057 | 35 | 190 | 4.8 | 14.5 | 0.00 | 0.00 | 0.00 | 29 | 1004.6 |
| 20260509213558 | 35 | 190 | 4.8 | 14.5 | 0.00 | 0.00 | 0.00 | 30 | 1004.7 |
| 20260509213138 | 35 | 190 | 6.4 | 19.3 | 0.00 | 0.00 | 0.00 | 29 | 1004.9 |
| 20260509213056 | 35 | 190 | 4.8 | 19.3 | 0.00 | 0.00 | 0.00 | 29 | 1004.8 |
| 20260509212554 | 35 | 190 | 6.4 | 19.3 | 0.00 | 0.00 | 0.00 | 29 | 1004.9 |
| 20260509212054 | 35 | 190 | 9.7 | 20.9 | 0.00 | 0.00 | 0.00 | 30 | 1005.0 |
| 20260509211556 | 36 | 190 | 8.0 | 17.7 | 0.00 | 0.00 | 0.00 | 29 | 1005.2 |
| 20260509211055 | 35 | 190 | 3.2 | 17.7 | 0.00 | 0.00 | 0.00 | 30 | 1005.0 |
| 20260509210550 | 36 | 190 | 3.2 | 16.1 | 0.00 | 0.00 | 0.00 | 30 | 1005.1 |
| 20260509210106 | 36 | 190 | 8.0 | 19.3 | 0.00 | 0.00 | 0.00 | 29 | 1005.3 |
| 20260509210048 | 36 | 190 | 3.2 | 19.3 | 0.00 | 0.00 | 0.00 | 29 | 1005.1 |
| 20260509205546 | 35 | 190 | 6.4 | 19.3 | 0.00 | 0.00 | 0.00 | 29 | 1005.2 |
| 20260509205049 | 35 | 190 | 3.2 | 19.3 | 0.00 | 0.00 | 0.00 | 29 | 1005.3 |
| 20260509204559 | 35 | 190 | 6.4 | 17.7 | 0.00 | 0.00 | 0.00 | 29 | 1005.6 |
| 20260509204545 | 35 | 190 | 6.4 | 17.7 | 0.00 | 0.00 | 0.00 | 30 | 1005.5 |
| 20260509204044 | 35 | 190 | 4.8 | 17.7 | 0.00 | 0.00 | 0.00 | 29 | 1005.6 |
| 20260509203544 | 35 | 190 | 4.8 | 20.9 | 0.00 | 0.00 | 0.00 | 29 | 1005.7 |
| 20260509203103 | 35 | 190 | 9.7 | 20.9 | 0.00 | 0.00 | 0.00 | 30 | 1005.8 |
| 20260509203100 | 35 | 190 | 11.3 | 20.9 | 0.00 | 0.00 | 0.00 | 29 | 1005.8 |
| 20260509202545 | 35 | 190 | 8.0 | 16.1 | 0.00 | 0.00 | 0.00 | 29 | 1005.9 |
| 20260509202041 | 35 | 190 | 4.8 | 19.3 | 0.00 | 0.00 | 0.00 | 29 | 1006.0 |
| 20260509201559 | 35 | 190 | 8.0 | 19.3 | 0.00 | 0.00 | 0.00 | 29 | 1006.3 |
| 20260509201539 | 35 | 190 | 8.0 | 19.3 | 0.00 | 0.00 | 0.00 | 29 | 1006.1 |
| 20260509201037 | 35 | 190 | 8.0 | 16.1 | 0.00 | 0.00 | 0.00 | 29 | 1006.3 |
| 20260509200537 | 35 | 190 | 9.7 | 19.3 | 0.00 | 0.00 | 0.00 | 30 | 1006.5 |
| 20260509200104 | 35 | 190 | 8.0 | 19.3 | 0.00 | 0.00 | 0.00 | 30 | 1006.6 |
| 20260509200036 | 35 | 190 | 6.4 | 19.3 | 0.00 | 0.00 | 0.00 | 30 | 1006.6 |
| 20260509195545 | 35 | 190 | 8.0 | 17.7 | 0.00 | 0.00 | 0.00 | 30 | 1006.8 |
| 20260509195034 | 35 | 190 | 4.8 | 22.5 | 0.00 | 0.00 | 0.00 | 30 | 1006.9 |
| 20260509194557 | 35 | 190 | 12.9 | 22.5 | 0.00 | 0.00 | 0.00 | 30 | 1007.1 |
| 20260509194533 | 35 | 190 | 9.7 | 22.5 | 0.00 | 0.00 | 0.00 | 30 | 1007.0 |
| 20260509194033 | 35 | 190 | 8.0 | 16.1 | 0.00 | 0.00 | 0.00 | 29 | 1007.0 |
| 20260509193532 | 35 | 190 | 6.4 | 27.4 | 0.00 | 0.00 | 0.00 | 30 | 1007.1 |
| 20260509193059 | 35 | 190 | 12.9 | 27.4 | 0.00 | 0.00 | 0.00 | 30 | 1007.1 |
| 20260509193032 | 35 | 190 | 8.0 | 27.4 | 0.00 | 0.00 | 0.00 | 30 | 1007.2 |
| 20260509192529 | 35 | 190 | 8.0 | 19.3 | 0.00 | 0.00 | 0.00 | 30 | 1007.3 |
| 20260509192028 | 35 | 190 | 4.8 | 12.9 | 0.00 | 0.00 | 0.00 | 30 | 1007.5 |
| 20260509191557 | 35 | 190 | 4.8 | 16.1 | 0.00 | 0.00 | 0.00 | 30 | 1007.6 |
| 20260509191530 | 35 | 190 | 4.8 | 16.1 | 0.00 | 0.00 | 0.00 | 30 | 1007.7 |
| 20260509191030 | 34 | 190 | 8.0 | 16.1 | 0.00 | 0.00 | 0.00 | 31 | 1007.8 |
| 20260509190526 | 35 | 190 | 6.4 | 14.5 | 0.00 | 0.00 | 0.00 | 31 | 1008.0 |
| 20260509190057 | 35 | 190 | 6.4 | 16.1 | 0.00 | 0.00 | 0.00 | 30 | 1008.0 |
| 20260509190026 | 35 | 190 | 3.2 | 14.5 | 0.00 | 0.00 | 0.00 | 31 | 1008.0 |
| 20260509185526 | 35 | 190 | 4.8 | 16.1 | 0.00 | 0.00 | 0.00 | 31 | 1008.1 |
| 20260509185026 | 34 | 190 | 8.0 | 16.1 | 0.00 | 0.00 | 0.00 | 31 | 1008.2 |
| 20260509184559 | 34 | 190 | 4.8 | 12.9 | 0.00 | 0.00 | 0.00 | 31 | 1008.2 |
| 20260509184530 | 34 | 190 | 1.6 | 12.9 | 0.00 | 0.00 | 0.00 | 31 | 1008.2 |
| 20260509184021 | 34 | 190 | 0.0 | 14.5 | 0.00 | 0.00 | 0.00 | 32 | 1008.4 |
| 20260509183521 | 34 | 190 | 4.8 | 14.5 | 0.00 | 0.00 | 0.00 | 31 | 1008.5 |
| 20260509183101 | 34 | 190 | 4.8 | 16.1 | 0.00 | 0.00 | 0.00 | 31 | 1008.5 |
| 20260509183021 | 34 | 190 | 4.8 | 11.3 | 0.00 | 0.00 | 0.00 | 32 | 1008.6 |
| 20260509182518 | 33 | 190 | 3.2 | 16.1 | 0.00 | 0.00 | 0.00 | 33 | 1008.7 |
| 20260509182019 | 33 | 190 | 4.8 | 16.1 | 0.00 | 0.00 | 0.00 | 32 | 1008.9 |
| 20260509181601 | 33 | 190 | 1.6 | 16.1 | 0.00 | 0.00 | 0.00 | 32 | 1008.8 |
| 20260509181517 | 33 | 190 | 0.0 | 16.1 | 0.00 | 0.00 | 0.00 | 32 | 1009.0 |
| 20260509181016 | 33 | 190 | 3.2 | 16.1 | 0.00 | 0.00 | 0.00 | 33 | 1009.1 |
| 20260509180515 | 33 | 190 | 1.6 | 14.5 | 0.00 | 0.00 | 0.00 | 34 | 1009.1 |
| 20260509180018 | 33 | 190 | 1.6 | 14.5 | 0.00 | 0.00 | 0.00 | 34 | 1009.1 |
| 20260509175516 | 33 | 190 | 6.4 | 14.5 | 0.00 | 0.00 | 0.00 | 33 | 1009.2 |
| 20260509175015 | 33 | 190 | 6.4 | 9.7 | 0.00 | 0.00 | 0.00 | 33 | 1009.2 |
| 20260509174557 | 33 | 0 | 0.0 | 11.3 | 0.00 | 0.00 | 0.00 | 34 | 1009.1 |
| 20260509174516 | 32 | 190 | 0.0 | 11.3 | 0.00 | 0.00 | 0.00 | 34 | 1009.2 |
| 20260509174020 | 33 | 190 | 4.8 | 11.3 | 0.00 | 0.00 | 0.00 | 34 | 1009.3 |
| 20260509173515 | 33 | 190 | 0.0 | 11.3 | 0.00 | 0.00 | 0.00 | 34 | 1009.2 |
| 20260509173115 | 33 | 190 | 4.8 | 11.3 | 0.00 | 0.00 | 0.00 | 34 | 1009.3 |
| 20260509173057 | 33 | 190 | 3.2 | 11.3 | 0.00 | 0.00 | 0.00 | 34 | 1009.1 |
| 20260509172514 | 33 | 190 | 4.8 | 11.3 | 0.00 | 0.00 | 0.00 | 35 | 1009.3 |
| 20260509172013 | 33 | 190 | 0.0 | 8.0 | 0.00 | 0.00 | 0.00 | 36 | 1009.4 |
| 20260509171556 | 33 | 190 | 1.6 | 11.3 | 0.00 | 0.00 | 0.00 | 35 | 1009.3 |
| 20260509171512 | 33 | 190 | 1.6 | 11.3 | 0.00 | 0.00 | 0.00 | 35 | 1009.5 |
| 20260509171010 | 32 | 190 | 1.6 | 11.3 | 0.00 | 0.00 | 0.00 | 36 | 1009.6 |
| 20260509170510 | 32 | 190 | 1.6 | 9.7 | 0.00 | 0.00 | 0.00 | 37 | 1009.6 |
| 20260509170059 | 32 | 190 | 4.8 | 9.7 | 0.00 | 0.00 | 0.00 | 36 | 1009.5 |
| 20260509170010 | 32 | 190 | 4.8 | 9.7 | 0.00 | 0.00 | 0.00 | 36 | 1009.7 |
| 20260509165510 | 32 | 190 | 3.2 | 9.7 | 0.00 | 0.00 | 0.00 | 36 | 1009.8 |
| 20260509165008 | 32 | 190 | 1.6 | 6.4 | 0.00 | 0.00 | 0.00 | 37 | 1009.8 |
| 20260509164559 | 32 | 0 | 1.6 | 6.4 | 0.00 | 0.00 | 0.00 | 37 | 1009.6 |
| 20260509164507 | 32 | 190 | 0.0 | 6.4 | 0.00 | 0.00 | 0.00 | 37 | 1009.8 |
| 20260509164006 | 31 | 190 | 0.0 | 6.4 | 0.00 | 0.00 | 0.00 | 38 | 1009.8 |
| 20260509163508 | 31 | 190 | 0.0 | 8.0 | 0.00 | 0.00 | 0.00 | 38 | 1009.9 |
| 20260509163059 | 31 | 190 | 3.2 | 9.7 | 0.00 | 0.00 | 0.00 | 37 | 1009.6 |
| 20260509163007 | 31 | 190 | 1.6 | 9.7 | 0.00 | 0.00 | 0.00 | 38 | 1010.0 |
| 20260509162504 | 31 | 190 | 1.6 | 8.0 | 0.00 | 0.00 | 0.00 | 38 | 1009.9 |
| 20260509162002 | 31 | 190 | 1.6 | 8.0 | 0.00 | 0.00 | 0.00 | 38 | 1009.9 |
| 20260509161608 | 31 | 0 | 1.6 | 8.0 | 0.00 | 0.00 | 0.00 | 38 | 1009.7 |
| 20260509161503 | 31 | 190 | 1.6 | 8.0 | 0.00 | 0.00 | 0.00 | 39 | 1010.0 |
| 20260509161002 | 31 | 190 | 0.0 | 6.4 | 0.00 | 0.00 | 0.00 | 39 | 1010.1 |
| 20260509160501 | 30 | 190 | 0.0 | 4.8 | 0.00 | 0.00 | 0.00 | 39 | 1010.1 |
| 20260509160105 | 30 | 190 | 1.6 | 4.8 | 0.00 | 0.00 | 0.00 | 38 | 1009.8 |
| 20260509160101 | 30 | 190 | 0.0 | 4.8 | 0.00 | 0.00 | 0.00 | 38 | 1010.2 |
| 20260509155559 | 30 | 190 | 0.0 | 4.8 | 0.00 | 0.00 | 0.00 | 39 | 1010.2 |
| 20260509155058 | 30 | 190 | 0.0 | 0.0 | 0.00 | 0.00 | 0.00 | 40 | 1010.2 |
| 20260509154618 | 30 | 0 | 0.0 | 4.8 | 0.00 | 0.00 | 0.00 | 39 | 1009.9 |
| 20260509154558 | 30 | 190 | 0.0 | 3.2 | 0.00 | 0.00 | 0.00 | 40 | 1010.3 |
| 20260509154059 | 30 | 190 | 0.0 | 4.8 | 0.00 | 0.00 | 0.00 | 40 | 1010.3 |
| 20260509153556 | 29 | 190 | 0.0 | 8.0 | 0.00 | 0.00 | 0.00 | 40 | 1010.3 |
| 20260509153110 | 29 | 190 | 0.0 | 6.4 | 0.00 | 0.00 | 0.00 | 40 | 1010.1 |
| 20260509153054 | 29 | 190 | 0.0 | 6.4 | 0.00 | 0.00 | 0.00 | 40 | 1010.5 |
| 20260509152553 | 29 | 190 | 1.6 | 6.4 | 0.00 | 0.00 | 0.00 | 42 | 1010.6 |
| 20260509152053 | 29 | 190 | 1.6 | 6.4 | 0.00 | 0.00 | 0.00 | 42 | 1010.5 |
| 20260509151611 | 29 | 190 | 3.2 | 6.4 | 0.00 | 0.00 | 0.00 | 42 | 1010.2 |
| 20260509151559 | 28 | 190 | 1.6 | 6.4 | 0.00 | 0.00 | 0.00 | 43 | 1010.5 |
| 20260509151051 | 29 | 190 | 0.0 | 0.0 | 0.00 | 0.00 | 0.00 | 44 | 1010.5 |
| 20260509150551 | 28 | 190 | 0.0 | 6.4 | 0.00 | 0.00 | 0.00 | 44 | 1010.6 |
| 20260509150105 | 28 | 190 | 1.6 | 6.4 | 0.00 | 0.00 | 0.00 | 44 | 1010.3 |
| 20260509150052 | 28 | 190 | 1.6 | 6.4 | 0.00 | 0.00 | 0.00 | 45 | 1010.5 |
| 20260509145550 | 28 | 190 | 1.6 | 6.4 | 0.00 | 0.00 | 0.00 | 46 | 1010.5 |
| 20260509145051 | 28 | 190 | 0.0 | 3.2 | 0.00 | 0.00 | 0.00 | 47 | 1010.5 |
| 20260509144601 | 27 | 0 | 0.0 | 4.8 | 0.00 | 0.00 | 0.00 | 47 | 1010.1 |
| 20260509144550 | 27 | 190 | 0.0 | 4.8 | 0.00 | 0.00 | 0.00 | 48 | 1010.5 |
| 20260509144050 | 27 | 190 | 0.0 | 4.8 | 0.00 | 0.00 | 0.00 | 49 | 1010.5 |
| 20260509143552 | 27 | 190 | 0.0 | 3.2 | 0.00 | 0.00 | 0.00 | 49 | 1010.5 |
| 20260509143058 | 27 | 0 | 0.0 | 3.2 | 0.00 | 0.00 | 0.00 | 50 | 1010.3 |
| 20260509143051 | 26 | 190 | 0.0 | 3.2 | 0.00 | 0.00 | 0.00 | 51 | 1010.5 |
| 20260509142549 | 26 | 190 | 0.0 | 0.0 | 0.00 | 0.00 | 0.00 | 52 | 1010.6 |
| 20260509142050 | 26 | 190 | 0.0 | 0.0 | 0.00 | 0.00 | 0.00 | 52 | 1010.6 |
| 20260509141600 | 26 | 0 | 0.0 | 1.6 | 0.00 | 0.00 | 0.00 | 52 | 1010.1 |
| 20260509141549 | 26 | 190 | 0.0 | 0.0 | 0.00 | 0.00 | 0.00 | 52 | 1010.6 |
| 20260509141049 | 26 | 190 | 0.0 | 3.2 | 0.00 | 0.00 | 0.00 | 53 | 1010.6 |
| 20260509140548 | 25 | 190 | 0.0 | 3.2 | 0.00 | 0.00 | 0.00 | 54 | 1010.7 |
| 20260509140105 | 25 | 0 | 0.0 | 4.8 | 0.00 | 0.00 | 0.00 | 54 | 1010.1 |
| 20260509140049 | 25 | 190 | 0.0 | 3.2 | 0.00 | 0.00 | 0.00 | 54 | 1010.6 |
| 20260509135548 | 25 | 190 | 0.0 | 4.8 | 0.00 | 0.00 | 0.00 | 55 | 1010.6 |
| 20260509135047 | 25 | 190 | 1.6 | 4.8 | 0.00 | 0.00 | 0.00 | 55 | 1010.6 |
| 20260509134603 | 25 | 0 | 0.0 | 0.0 | 0.00 | 0.00 | 0.00 | 55 | 1010.1 |
| 20260509134548 | 25 | 190 | 0.0 | 0.0 | 0.00 | 0.00 | 0.00 | 56 | 1010.6 |
| 20260509134047 | 24 | 190 | 0.0 | 0.0 | 0.00 | 0.00 | 0.00 | 56 | 1010.5 |
| 20260509133547 | 24 | 190 | 0.0 | 0.0 | 0.00 | 0.00 | 0.00 | 57 | 1010.4 |
| 20260509133058 | 23 | 0 | 0.0 | 0.0 | 0.00 | 0.00 | 0.00 | 58 | 1009.9 |
| 20260509133046 | 23 | 190 | 0.0 | 0.0 | 0.00 | 0.00 | 0.00 | 58 | 1010.4 |
| 20260509132545 | 23 | 190 | 0.0 | 0.0 | 0.00 | 0.00 | 0.00 | 59 | 1010.3 |
| 20260509132044 | 23 | 190 | 0.0 | 0.0 | 0.00 | 0.00 | 0.00 | 59 | 1010.3 |
| 20260509131557 | 23 | 0 | 0.0 | 3.2 | 0.00 | 0.00 | 0.00 | 59 | 1009.6 |
| 20260509131549 | 22 | 190 | 0.0 | 3.2 | 0.00 | 0.00 | 0.00 | 59 | 1010.2 |
| 20260509131043 | 22 | 190 | 0.0 | 3.2 | 0.00 | 0.00 | 0.00 | 59 | 1010.2 |
| 20260509130543 | 22 | 190 | 0.0 | 3.2 | 0.00 | 0.00 | 0.00 | 59 | 1010.1 |
| 20260509130100 | 22 | 0 | 0.0 | 0.0 | 0.00 | 0.00 | 0.00 | 59 | 1009.6 |
| 20260509130056 | 22 | 190 | 0.0 | 0.0 | 0.00 | 0.00 | 0.00 | 60 | 1010.0 |
| 20260509125540 | 22 | 190 | 0.0 | 0.0 | 0.00 | 0.00 | 0.00 | 60 | 1010.0 |
| 20260509125041 | 22 | 190 | 0.0 | 0.0 | 0.00 | 0.00 | 0.00 | 61 | 1009.9 |
| 20260509124604 | 22 | 0 | 0.0 | 1.6 | 0.00 | 0.00 | 0.00 | 61 | 1009.4 |
| 20260509124543 | 22 | 190 | 0.0 | 1.6 | 0.00 | 0.00 | 0.00 | 61 | 1009.8 |
| 20260509124040 | 22 | 190 | 0.0 | 0.0 | 0.00 | 0.00 | 0.00 | 60 | 1009.8 |
| 20260509123540 | 22 | 190 | 0.0 | 0.0 | 0.00 | 0.00 | 0.00 | 60 | 1009.8 |
| 20260509123057 | 22 | 0 | 0.0 | 3.2 | 0.00 | 0.00 | 0.00 | 59 | 1009.3 |
| 20260509123042 | 22 | 190 | 0.0 | 3.2 | 0.00 | 0.00 | 0.00 | 60 | 1009.7 |
| 20260509122539 | 22 | 190 | 0.0 | 3.2 | 0.00 | 0.00 | 0.00 | 60 | 1009.6 |
| 20260509122039 | 22 | 190 | 0.0 | 0.0 | 0.00 | 0.00 | 0.00 | 60 | 1009.5 |
| 20260509121611 | 22 | 0 | 0.0 | 0.0 | 0.00 | 0.00 | 0.00 | 59 | 1009.0 |
| 20260509121537 | 22 | 190 | 0.0 | 0.0 | 0.00 | 0.00 | 0.00 | 60 | 1009.3 |
| 20260509121037 | 22 | 190 | 0.0 | 0.0 | 0.00 | 0.00 | 0.00 | 60 | 1009.2 |
| 20260509120536 | 22 | 190 | 0.0 | 0.0 | 0.00 | 0.00 | 0.00 | 60 | 1009.1 |
| 20260509120112 | 22 | 0 | 0.0 | 3.2 | 0.00 | 0.00 | 0.00 | 59 | 1008.7 |
| 20260509120036 | 22 | 190 | 0.0 | 3.2 | 0.00 | 0.00 | 0.00 | 59 | 1009.1 |
| 20260509115534 | 23 | 190 | 0.0 | 3.2 | 0.00 | 0.00 | 0.00 | 59 | 1009.1 |
| 20260509115033 | 23 | 190 | 0.0 | 0.0 | 0.00 | 0.00 | 0.00 | 59 | 1009.2 |
| 20260509114559 | 23 | 0 | 0.0 | 0.0 | 0.00 | 0.00 | 0.00 | 58 | 1008.7 |
| 20260509114533 | 23 | 190 | 0.0 | 0.0 | 0.00 | 0.00 | 0.00 | 59 | 1009.0 |
| 20260509114032 | 23 | 190 | 0.0 | 0.0 | 0.00 | 0.00 | 0.00 | 59 | 1009.0 |
| 20260509113532 | 23 | 190 | 0.0 | 0.0 | 0.00 | 0.00 | 0.00 | 59 | 1008.9 |
| 20260509113059 | 23 | 0 | 0.0 | 0.0 | 0.00 | 0.00 | 0.00 | 58 | 1008.5 |
| 20260509113031 | 23 | 190 | 0.0 | 0.0 | 0.00 | 0.00 | 0.00 | 58 | 1008.9 |
| 20260509112530 | 23 | 190 | 0.0 | 0.0 | 0.00 | 0.00 | 0.00 | 58 | 1008.8 |
| 20260509112030 | 23 | 190 | 0.0 | 0.0 | 0.00 | 0.00 | 0.00 | 58 | 1008.7 |
| 20260509111559 | 23 | 0 | 0.0 | 0.0 | 0.00 | 0.00 | 0.00 | 56 | 1008.2 |
| 20260509111531 | 23 | 190 | 0.0 | 0.0 | 0.00 | 0.00 | 0.00 | 57 | 1008.7 |
| 20260509111030 | 23 | 190 | 0.0 | 0.0 | 0.00 | 0.00 | 0.00 | 57 | 1008.7 |
| 20260509110529 | 23 | 190 | 0.0 | 0.0 | 0.00 | 0.00 | 0.00 | 58 | 1008.6 |
| 20260509110029 | 23 | 190 | 0.0 | 1.6 | 0.00 | 0.00 | 0.00 | 57 | 1008.6 |
| 20260509105528 | 23 | 190 | 0.0 | 3.2 | 0.00 | 0.00 | 0.00 | 57 | 1008.6 |
| 20260509105028 | 23 | 190 | 0.0 | 3.2 | 0.00 | 0.00 | 0.00 | 56 | 1008.5 |
| 20260509104600 | 23 | 0 | 0.0 | 3.2 | 0.00 | 0.00 | 0.00 | 55 | 1008.1 |
| 20260509104527 | 23 | 190 | 0.0 | 1.6 | 0.00 | 0.00 | 0.00 | 56 | 1008.5 |
| 20260509104026 | 23 | 190 | 0.0 | 4.8 | 0.00 | 0.00 | 0.00 | 56 | 1008.5 |
| 20260509103525 | 23 | 190 | 1.6 | 4.8 | 0.00 | 0.00 | 0.00 | 55 | 1008.5 |
| 20260509103104 | 24 | 190 | 0.0 | 4.8 | 0.00 | 0.00 | 0.00 | 55 | 1008.1 |
| 20260509103023 | 24 | 190 | 0.0 | 4.8 | 0.00 | 0.00 | 0.00 | 55 | 1008.4 |
| 20260509102522 | 25 | 190 | 1.6 | 4.8 | 0.00 | 0.00 | 0.00 | 56 | 1008.5 |
| 20260509102021 | 25 | 190 | 0.0 | 0.0 | 0.00 | 0.00 | 0.00 | 55 | 1008.5 |
| 20260509101603 | 25 | 0 | 0.0 | 0.0 | 0.00 | 0.00 | 0.00 | 55 | 1008.3 |
| 20260509101520 | 25 | 190 | 0.0 | 0.0 | 0.00 | 0.00 | 0.00 | 55 | 1008.6 |
| 20260509101019 | 25 | 190 | 0.0 | 0.0 | 0.00 | 0.00 | 0.00 | 54 | 1008.6 |
| 20260509100517 | 25 | 190 | 0.0 | 0.0 | 0.00 | 0.00 | 0.00 | 54 | 1008.6 |
| 20260509100057 | 25 | 0 | 0.0 | 0.0 | 0.00 | 0.00 | 0.00 | 53 | 1008.3 |
| 20260509100021 | 25 | 190 | 0.0 | 0.0 | 0.00 | 0.00 | 0.00 | 53 | 1008.6 |
| 20260509095517 | 25 | 190 | 0.0 | 0.0 | 0.00 | 0.00 | 0.00 | 53 | 1008.7 |
| 20260509095019 | 25 | 190 | 0.0 | 0.0 | 0.00 | 0.00 | 0.00 | 53 | 1008.7 |
| 20260509094601 | 25 | 0 | 0.0 | 0.0 | 0.00 | 0.00 | 0.00 | 53 | 1008.5 |
| 20260509094515 | 25 | 190 | 0.0 | 0.0 | 0.00 | 0.00 | 0.00 | 53 | 1008.8 |
| 20260509094015 | 25 | 190 | 0.0 | 0.0 | 0.00 | 0.00 | 0.00 | 53 | 1008.7 |
| 20260509093515 | 25 | 190 | 0.0 | 0.0 | 0.00 | 0.00 | 0.00 | 52 | 1008.7 |
| 20260509093058 | 26 | 0 | 0.0 | 0.0 | 0.00 | 0.00 | 0.00 | 52 | 1008.5 |
| 20260509093014 | 25 | 190 | 0.0 | 0.0 | 0.00 | 0.00 | 0.00 | 53 | 1008.7 |
| 20260509092520 | 26 | 190 | 0.0 | 0.0 | 0.00 | 0.00 | 0.00 | 52 | 1008.7 |
| 20260509092013 | 26 | 190 | 0.0 | 0.0 | 0.00 | 0.00 | 0.00 | 52 | 1008.7 |
| 20260509091632 | 26 | 0 | 0.0 | 0.0 | 0.00 | 0.00 | 0.00 | 52 | 1008.6 |
| 20260509091513 | 26 | 190 | 0.0 | 0.0 | 0.00 | 0.00 | 0.00 | 52 | 1008.7 |
| 20260509091014 | 26 | 190 | 0.0 | 0.0 | 0.00 | 0.00 | 0.00 | 52 | 1008.7 |
| 20260509090511 | 26 | 190 | 0.0 | 0.0 | 0.00 | 0.00 | 0.00 | 51 | 1008.7 |
| 20260509090057 | 26 | 0 | 0.0 | 0.0 | 0.00 | 0.00 | 0.00 | 51 | 1008.5 |
| 20260509090012 | 26 | 190 | 0.0 | 0.0 | 0.00 | 0.00 | 0.00 | 51 | 1008.8 |
| 20260509085511 | 26 | 190 | 0.0 | 0.0 | 0.00 | 0.00 | 0.00 | 51 | 1008.7 |
| 20260509085010 | 26 | 190 | 0.0 | 0.0 | 0.00 | 0.00 | 0.00 | 51 | 1008.8 |
| 20260509084557 | 26 | 0 | 0.0 | 0.0 | 0.00 | 0.00 | 0.00 | 50 | 1008.8 |
| 20260509084517 | 26 | 190 | 0.0 | 0.0 | 0.00 | 0.00 | 0.00 | 51 | 1008.9 |
| 20260509084013 | 26 | 190 | 0.0 | 0.0 | 0.00 | 0.00 | 0.00 | 50 | 1008.9 |
| 20260509083507 | 26 | 190 | 0.0 | 0.0 | 0.00 | 0.00 | 0.00 | 50 | 1008.9 |
| 20260509083100 | 26 | 0 | 0.0 | 0.0 | 0.00 | 0.00 | 0.00 | 50 | 1008.8 |
| 20260509083015 | 26 | 190 | 0.0 | 0.0 | 0.00 | 0.00 | 0.00 | 50 | 1009.0 |
| 20260509082509 | 26 | 190 | 0.0 | 0.0 | 0.00 | 0.00 | 0.00 | 50 | 1009.0 |
| 20260509082005 | 26 | 190 | 0.0 | 4.8 | 0.00 | 0.00 | 0.00 | 49 | 1009.0 |
| 20260509081558 | 26 | 0 | 1.6 | 4.8 | 0.00 | 0.00 | 0.00 | 49 | 1008.9 |
| 20260509081511 | 26 | 190 | 1.6 | 4.8 | 0.00 | 0.00 | 0.00 | 49 | 1009.1 |
| 20260509081004 | 26 | 190 | 1.6 | 4.8 | 0.00 | 0.00 | 0.00 | 49 | 1009.1 |
| 20260509080504 | 26 | 190 | 0.0 | 6.4 | 0.00 | 0.00 | 0.00 | 49 | 1009.2 |
| 20260509080107 | 26 | 0 | 1.6 | 6.4 | 0.00 | 0.00 | 0.00 | 48 | 1009.0 |
| 20260509080003 | 26 | 190 | 1.6 | 6.4 | 0.00 | 0.00 | 0.00 | 49 | 1009.1 |
| 20260509075502 | 27 | 190 | 0.0 | 6.4 | 0.00 | 0.00 | 0.00 | 48 | 1009.1 |
| 20260509075002 | 27 | 190 | 3.2 | 6.4 | 0.00 | 0.00 | 0.00 | 48 | 1009.1 |
| 20260509074601 | 27 | 190 | 3.2 | 4.8 | 0.00 | 0.00 | 0.00 | 48 | 1009.1 |
| 20260509074059 | 27 | 190 | 0.0 | 3.2 | 0.00 | 0.00 | 0.00 | 48 | 1009.2 |
| 20260509073558 | 27 | 190 | 0.0 | 3.2 | 0.00 | 0.00 | 0.00 | 48 | 1009.1 |
| 20260509073141 | 27 | 190 | 0.0 | 4.8 | 0.00 | 0.00 | 0.00 | 47 | 1009.1 |
| 20260509073058 | 27 | 190 | 0.0 | 4.8 | 0.00 | 0.00 | 0.00 | 48 | 1009.2 |
| 20260509072557 | 27 | 190 | 0.0 | 4.8 | 0.00 | 0.00 | 0.00 | 48 | 1009.2 |
| 20260509072056 | 27 | 190 | 0.0 | 6.4 | 0.00 | 0.00 | 0.00 | 48 | 1009.3 |
| 20260509071559 | 27 | 190 | 1.6 | 8.0 | 0.00 | 0.00 | 0.00 | 47 | 1009.2 |
| 20260509071053 | 27 | 190 | 1.6 | 8.0 | 0.00 | 0.00 | 0.00 | 47 | 1009.4 |
| 20260509070552 | 27 | 190 | 0.0 | 4.8 | 0.00 | 0.00 | 0.00 | 47 | 1009.6 |
| 20260509070059 | 27 | 190 | 0.0 | 3.2 | 0.00 | 0.00 | 0.00 | 47 | 1009.7 |
| 20260509065551 | 27 | 190 | 0.0 | 8.0 | 0.00 | 0.00 | 0.00 | 47 | 1009.7 |
| 20260509065051 | 27 | 190 | 1.6 | 6.4 | 0.00 | 0.00 | 0.00 | 47 | 1009.7 |
| 20260509064558 | 28 | 0 | 0.0 | 4.8 | 0.00 | 0.00 | 0.00 | 46 | 1009.6 |
| 20260509064553 | 28 | 190 | 0.0 | 4.8 | 0.00 | 0.00 | 0.00 | 47 | 1009.8 |
| 20260509064053 | 28 | 190 | 0.0 | 1.6 | 0.00 | 0.00 | 0.00 | 46 | 1009.7 |
| 20260509063553 | 28 | 190 | 0.0 | 3.2 | 0.00 | 0.00 | 0.00 | 46 | 1009.8 |
| 20260509063059 | 28 | 0 | 0.0 | 4.8 | 0.00 | 0.00 | 0.00 | 45 | 1009.6 |
| 20260509063048 | 28 | 190 | 0.0 | 3.2 | 0.00 | 0.00 | 0.00 | 45 | 1009.7 |
| 20260509062547 | 28 | 190 | 0.0 | 4.8 | 0.00 | 0.00 | 0.00 | 45 | 1009.7 |
| 20260509062046 | 28 | 190 | 0.0 | 4.8 | 0.00 | 0.00 | 0.00 | 44 | 1009.8 |
| 20260509061602 | 28 | 0 | 0.0 | 4.8 | 0.00 | 0.00 | 0.00 | 43 | 1009.7 |
| 20260509061558 | 28 | 190 | 0.0 | 4.8 | 0.00 | 0.00 | 0.00 | 44 | 1009.9 |
| 20260509061045 | 28 | 190 | 0.0 | 6.4 | 0.00 | 0.00 | 0.00 | 44 | 1009.9 |
| 20260509060544 | 28 | 190 | 0.0 | 6.4 | 0.00 | 0.00 | 0.00 | 44 | 1009.8 |
| 20260509060105 | 28 | 190 | 0.0 | 4.8 | 0.00 | 0.00 | 0.00 | 43 | 1009.6 |
| 20260509060059 | 28 | 190 | 0.0 | 4.8 | 0.00 | 0.00 | 0.00 | 43 | 1009.7 |
| 20260509055542 | 28 | 190 | 0.0 | 0.0 | 0.00 | 0.00 | 0.00 | 43 | 1009.7 |
| 20260509055042 | 28 | 190 | 0.0 | 6.4 | 0.00 | 0.00 | 0.00 | 43 | 1009.7 |
| 20260509054613 | 28 | 0 | 0.0 | 6.4 | 0.00 | 0.00 | 0.00 | 42 | 1009.7 |
| 20260509054548 | 28 | 190 | 0.0 | 6.4 | 0.00 | 0.00 | 0.00 | 42 | 1009.8 |
| 20260509054042 | 28 | 190 | 0.0 | 6.4 | 0.00 | 0.00 | 0.00 | 42 | 1009.8 |
| 20260509053543 | 28 | 190 | 0.0 | 6.4 | 0.00 | 0.00 | 0.00 | 43 | 1009.8 |
| 20260509053104 | 29 | 0 | 1.6 | 8.0 | 0.00 | 0.00 | 0.00 | 42 | 1009.6 |
| 20260509053042 | 29 | 190 | 0.0 | 8.0 | 0.00 | 0.00 | 0.00 | 43 | 1009.8 |
| 20260509052544 | 29 | 190 | 1.6 | 8.0 | 0.00 | 0.00 | 0.00 | 43 | 1009.7 |
| 20260509052041 | 29 | 190 | 1.6 | 14.5 | 0.00 | 0.00 | 0.00 | 43 | 1009.7 |
| 20260509051559 | 29 | 190 | 0.0 | 9.7 | 0.00 | 0.00 | 0.00 | 42 | 1009.5 |
| 20260509051540 | 29 | 190 | 1.6 | 14.5 | 0.00 | 0.00 | 0.00 | 43 | 1009.7 |
| 20260509051042 | 29 | 190 | 1.6 | 9.7 | 0.00 | 0.00 | 0.00 | 43 | 1009.7 |
| 20260509050541 | 29 | 190 | 1.6 | 9.7 | 0.00 | 0.00 | 0.00 | 43 | 1009.7 |
| 20260509050059 | 29 | 190 | 0.0 | 4.8 | 0.00 | 0.00 | 0.00 | 42 | 1009.4 |
| 20260509045540 | 29 | 190 | 0.0 | 9.7 | 0.00 | 0.00 | 0.00 | 42 | 1009.6 |
| 20260509045040 | 29 | 190 | 0.0 | 11.3 | 0.00 | 0.00 | 0.00 | 42 | 1009.4 |
| 20260509044558 | 29 | 190 | 1.6 | 11.3 | 0.00 | 0.00 | 0.00 | 41 | 1009.0 |
| 20260509044553 | 29 | 190 | 1.6 | 11.3 | 0.00 | 0.00 | 0.00 | 42 | 1009.2 |
| 20260509044041 | 28 | 190 | 0.0 | 4.8 | 0.00 | 0.00 | 0.00 | 42 | 1009.1 |
| 20260509043540 | 28 | 190 | 0.0 | 4.8 | 0.00 | 0.00 | 0.00 | 41 | 1008.9 |
| 20260509043058 | 28 | 190 | 0.0 | 8.0 | 0.00 | 0.00 | 0.00 | 40 | 1008.7 |
| 20260509043040 | 28 | 190 | 0.0 | 8.0 | 0.00 | 0.00 | 0.00 | 40 | 1008.9 |
| 20260509042539 | 28 | 190 | 3.2 | 8.0 | 0.00 | 0.00 | 0.00 | 40 | 1008.8 |
| 20260509042038 | 28 | 190 | 0.0 | 8.0 | 0.00 | 0.00 | 0.00 | 40 | 1008.6 |
| 20260509041556 | 29 | 0 | 0.0 | 4.8 | 0.00 | 0.00 | 0.00 | 38 | 1008.4 |
| 20260509041538 | 29 | 190 | 0.0 | 4.8 | 0.00 | 0.00 | 0.00 | 38 | 1008.5 |
| 20260509041039 | 29 | 190 | 1.6 | 4.8 | 0.00 | 0.00 | 0.00 | 39 | 1008.4 |
| 20260509040538 | 29 | 190 | 1.6 | 4.8 | 0.00 | 0.00 | 0.00 | 38 | 1008.3 |
| 20260509040125 | 30 | 0 | 0.0 | 0.0 | 0.00 | 0.00 | 0.00 | 38 | 1008.1 |
| 20260509040040 | 30 | 190 | 0.0 | 0.0 | 0.00 | 0.00 | 0.00 | 38 | 1008.2 |
| 20260509035540 | 30 | 190 | 0.0 | 0.0 | 0.00 | 0.00 | 0.00 | 39 | 1008.1 |
| 20260509035038 | 30 | 190 | 0.0 | 0.0 | 0.00 | 0.00 | 0.00 | 39 | 1008.0 |
| 20260509034601 | 30 | 0 | 0.0 | 0.0 | 0.00 | 0.00 | 0.00 | 38 | 1007.8 |
| 20260509034537 | 30 | 190 | 0.0 | 0.0 | 0.00 | 0.00 | 0.00 | 39 | 1007.9 |
| 20260509034037 | 30 | 190 | 0.0 | 0.0 | 0.00 | 0.00 | 0.00 | 39 | 1007.8 |
| 20260509033537 | 30 | 190 | 0.0 | 0.0 | 0.00 | 0.00 | 0.00 | 39 | 1007.8 |
| 20260509033058 | 30 | 0 | 0.0 | 1.6 | 0.00 | 0.00 | 0.00 | 38 | 1007.6 |
| 20260509033040 | 30 | 190 | 0.0 | 1.6 | 0.00 | 0.00 | 0.00 | 38 | 1007.6 |